Home > Weather > Bălți > Past weeks

Flag for Moldova Past Weather in Bălți, Moldova — Yesterday and Last 2 Weeks

Now
61 °F

Cool.


Feels Like: 61 °F
Forecast: 58 / 79 °F
Wind: 10 mph from North

Location: Baltsi-Leadoveni - The North of Moldova

Current Time: Aug 25, 2016 at 4:22:31 AM

Latest Report: Aug 25, 2016 at 4:00 AM


Visibility: N/A

Pressure: 30.15 "Hg

Humidity: 77%

Dew Point: 54 °F

Location of BălțiLocation

Past Weather in Bălți — Graph

°F

Bălți Temperature Yesterday

Maximum temperature yesterday: 81 °F (at 2:30 PM)
Minimum temperature yesterday: 63 °F (at 6:00 AM)
Average temperature yesterday: 70 °F

High & Low Weather Summary for the Past Weeks

 TemperatureHumidityPressure
High90 °F (Aug 22, 2:30 PM)100% (Aug 12, 7:00 AM)30.21 "Hg (Aug 12, 7:00 AM)
Low52 °F (Aug 13, 6:00 AM)25% (Aug 10, 3:30 PM)29.83 "Hg (Aug 17, 5:30 PM)
Average70 °F63%30.04 "Hg
* Reported Aug 10 3:00 AM — Aug 25 3:00 AM, Bălți, Weather by CustomWeather, © 2016

Note: Actual official high and low records may vary slightly from our data, if they occured in-between our weather recording intervals... More about our weather records

Advertising

Bălți Weather History for the Previous 24 Hours

Scroll right to see more
 ConditionsComfort  
Time TempWeatherWind HumidityBarometerVisibility
3:00 AM
Thu, Aug 25
61 °FCool.12 mph77%30.15 "HgN/A
2:30 AM61 °FCool.10 mph72%30.15 "HgN/A
2:00 AM63 °FMild.12 mph73%30.12 "HgN/A
1:30 AM63 °FMild.13 mph73%30.12 "HgN/A
1:00 AM63 °FMild.13 mph73%30.15 "HgN/A
12:30 AM64 °FMild.12 mph64%30.15 "HgN/A
12:00 AM64 °FMild.10 mph68%30.15 "HgN/A
11:30 PM
Wed, Aug 24
64 °FMild.12 mph68%30.12 "HgN/A
11:00 PM66 °FMild.12 mph64%30.12 "HgN/A
10:30 PM66 °FMild.10 mph64%30.12 "HgN/A
10:00 PM68 °FMild.10 mph60%30.12 "HgN/A
9:30 PM68 °FMild.12 mph60%30.12 "HgN/A
9:00 PM70 °FMild.12 mph57%30.12 "HgN/A
8:30 PM72 °FMild.12 mph53%30.12 "HgN/A
8:00 PM72 °FMild.10 mph53%30.09 "HgN/A
7:30 PM73 °FMild.13 mph50%30.09 "HgN/A
7:00 PM75 °FMild.14 mph47%30.09 "HgN/A
6:30 PM77 °FWarm.16 mph44%30.09 "HgN/A
6:00 PM77 °FWarm.14 mph44%30.09 "HgN/A
5:00 PM79 °FPleasantly warm.15 mph39%30.09 "HgN/A
4:30 PM81 °FPleasantly warm.15 mph37%30.09 "HgN/A
4:00 PM81 °FPleasantly warm.14 mph37%30.09 "HgN/A
3:00 PM79 °FPleasantly warm.14 mph34%30.09 "HgN/A
2:30 PM81 °FPleasantly warm.15 mph37%30.12 "HgN/A
2:00 PM79 °FPleasantly warm.14 mph39%30.12 "HgN/A
1:30 PM79 °FPleasantly warm.15 mph39%30.12 "HgN/A
1:00 PM77 °FWarm.15 mph42%30.12 "HgN/A
12:30 PM77 °FWarm.15 mph42%30.12 "HgN/A
12:00 PM75 °FMild.17 mph47%30.12 "HgN/A
11:30 AM73 °FMild.17 mph53%30.12 "HgN/A
11:00 AM72 °FMild.14 mph57%30.12 "HgN/A
10:30 AM70 °FMild.15 mph64%30.12 "HgN/A
10:00 AM70 °FMild.16 mph64%30.12 "HgN/A
9:30 AM68 °FMild.14 mph73%30.12 "HgN/A
9:00 AM64 °FMild.15 mph83%30.12 "HgN/A
8:30 AM66 °FMild.14 mph83%30.12 "HgN/A
8:00 AM64 °FMild.14 mph88%30.09 "HgN/A
7:30 AM63 °FMild.15 mph94%30.09 "HgN/A
7:00 AM63 °FMild.14 mph94%30.09 "HgN/A
6:30 AM63 °FMild.16 mph94%30.09 "HgN/A
6:00 AM63 °FMild.16 mph94%30.09 "HgN/A
5:30 AM64 °FMild.16 mph94%30.07 "HgN/A
5:00 AM64 °FMild.18 mph94%30.07 "HgN/A
4:30 AM64 °FMild.17 mph94%30.09 "HgN/A
4:00 AM64 °FMild.16 mph94%30.09 "HgN/A
Weather by CustomWeather, © 2016

See weather overviewHow to use our weather pages